[[{"header":{"parameterUnit":"m.s-1","parameterCategory":1,"la1":30.2991,"la2":30.254,"lo1":-89.0895,"lo2":-89.0444,"dy":0.0017,"dx":0.0017,"nx":28,"ny":28,"refTime":"2025-09-02T03:00:00:Z","depth":0,"parameterNumber":2,"parameterNumberName":"U-component_of_WINDS"},"data":[0,0,0,0,0,0,0,0,0,0,0,0,0,0,0,0,0,0,0,0,0,0,0,0,0,0,0,0,0,0,0,0,0,0,0,0,0,0,0,0,0,0,0,0,0,0,0,0,0,0,0,0,0,0,0,0,0,0,-1.3791,-1.3791,0,-1.3763,-1.3763,-1.3763,-1.3678,-1.3676,-1.3674,-1.3673,-1.3646,-1.3647,-1.3648,0,0,0,0,0,0,0,0,0,0,0,0,0,-1.3774,-1.3775,-1.3791,-1.3791,-1.3791,-1.3763,-1.3763,-1.3763,-1.3678,-1.3676,-1.3674,-1.3672,-1.3646,-1.3647,-1.3649,0,0,0,0,0,0,0,0,0,0,0,0,0,-1.3768,-1.3775,-1.3791,-1.3745,-1.3741,-1.3764,-1.3763,-1.3763,-1.3679,-1.3676,-1.3673,-1.3671,-1.3646,-1.3647,-1.3649,-1.3715,0,0,-1.3653,-1.3654,0,0,0,0,0,0,0,0,-1.3768,-1.3768,-1.3752,-1.3749,-1.3744,-1.3721,-1.3747,-1.3747,-1.368,-1.3703,-1.3673,-1.3669,-1.3674,-1.3673,-1.3674,-1.3713,-1.3712,-1.3654,-1.3655,-1.3655,-1.3656,0,0,0,0,0,0,0,-1.3769,-1.3769,-1.378,-1.3752,-1.3747,-1.3727,-1.3723,-1.3747,-1.3704,-1.37,-1.3694,-1.3692,-1.3671,-1.3673,-1.3673,-1.3712,-1.3654,-1.3655,-1.3656,-1.3657,-1.3803,-1.3806,0,0,0,0,0,0,-1.3775,-1.377,-1.3781,-1.3779,-1.3749,-1.3729,-1.3725,-1.3731,-1.3704,-1.3697,-1.3694,-1.3688,-1.3671,-1.3671,-1.3671,-1.3746,-1.3655,-1.3657,-1.3658,-1.3801,-1.3804,-1.3807,0,0,0,0,0,0,-1.3775,-1.3777,-1.3782,-1.3773,-1.3772,-1.3733,-1.3741,-1.3732,-1.3734,-1.3699,-1.3691,-1.3704,-1.3669,-1.3669,-1.3704,-1.3744,-1.3657,-1.3659,-1.3797,-1.3802,-1.3806,-1.3897,0,0,0,0,0,0,-1.3775,-1.3778,-1.3802,-1.3774,-1.3773,-1.3815,-1.3743,-1.3734,-1.3736,-1.3728,-1.3706,-1.37,-1.3667,-1.3702,-1.3706,-1.3745,-1.366,-1.3793,-1.3799,-1.3804,-1.389,-1.3904,-1.3916,0,0,0,0,0,-1.3775,-1.3829,-1.3803,-1.3805,-1.3802,-1.3818,-1.3817,-1.3778,-1.374,-1.3764,-1.3742,-1.37,-1.3739,-1.3707,-1.371,-1.375,-1.3791,-1.3797,-1.3804,-1.3884,-1.3901,-1.3915,0,0,0,0,0,0,-1.3863,-1.3825,-1.3796,-1.3843,-1.3834,-1.3803,-1.3833,-1.3797,-1.3799,-1.3791,-1.3743,-1.3739,-1.3781,-1.3769,-1.3733,-1.3812,-1.3758,-1.3766,-1.3818,-1.3834,-1.3846,-1.3848,-1.3661,0,0,0,0,0,-1.3888,-1.3903,-1.3869,-1.3914,-1.3911,-1.3873,-1.3878,-1.3848,-1.3838,-1.3834,-1.3814,-1.3806,-1.3817,-1.3825,-1.3832,-1.3888,-1.3882,-1.3917,-1.393,-1.3941,-1.3948,-1.3976,-1.3991,-1.3829,-1.3829,-1.3829,0,0,-1.394,-1.3921,-1.3934,-1.3931,-1.3921,-1.3938,-1.387,-1.3892,-1.3904,-1.3838,-1.3869,-1.3854,-1.3842,-1.3888,-1.3907,-1.3879,-1.3991,-1.3949,-1.3958,-1.3959,-1.3985,-1.4,-1.4014,-1.3834,-1.3833,-1.3832,0,0,-1.4043,-1.403,-1.4066,-1.4057,-1.4042,-1.4016,-1.4025,-1.4,-1.3987,-1.4018,-1.3968,-1.3982,-1.4001,-1.3995,-1.3994,-1.4094,-1.4056,-1.4098,-1.4165,-1.4193,-1.4206,-1.4217,-1.4253,-1.4266,-1.4106,-1.4106,-1.4106,0,-1.411,-1.4133,-1.4089,-1.4113,-1.4114,-1.4053,-1.4089,-1.4083,-1.4072,-1.4074,-1.4043,-1.4065,-1.4052,-1.4095,-1.412,-1.4121,-1.413,-1.41,-1.4208,-1.4218,-1.4228,-1.4262,-1.4275,-1.4111,-1.411,-1.411,-1.4109,0,-1.4215,-1.4233,-1.4263,-1.4253,-1.4257,-1.4287,-1.4248,-1.4257,-1.4227,-1.4205,-1.4237,-1.422,-1.4223,-1.4231,-1.4203,-1.4271,-1.4254,-1.4216,-1.4161,-1.4249,-1.428,-1.4293,-1.4118,-1.4117,-1.4115,-1.4114,0,0,-1.4374,-1.4338,-1.435,-1.4344,-1.4324,-1.4336,-1.4364,-1.4366,-1.4375,-1.4369,-1.4392,-1.4409,-1.4373,-1.4373,-1.4343,-1.4368,-1.4448,-1.4326,-1.4325,-1.4349,-1.4522,-1.455,-1.4566,-1.4423,-1.4425,-1.4427,-1.4523,0,-1.4471,-1.4515,-1.4476,-1.4528,-1.4543,-1.4486,-1.451,-1.45,-1.448,-1.4491,-1.4469,-1.4482,-1.4434,-1.4433,-1.4455,-1.4434,-1.4482,-1.4426,-1.4443,-1.4444,-1.4448,-1.4582,-1.4612,-1.4704,-1.4535,-1.4537,-1.4538,0,-1.4591,-1.459,-1.4643,-1.4618,-1.4623,-1.4645,-1.4643,-1.4654,-1.4642,-1.4626,-1.4625,-1.4588,-1.4614,-1.456,-1.4595,-1.4558,-1.4563,-1.4553,-1.4556,-1.4556,-1.4497,-1.4586,-1.4732,-1.4746,-1.4556,-1.4555,-1.4554,0,-1.4701,-1.4713,-1.4746,-1.4743,-1.4715,-1.4732,-1.4721,-1.4706,-1.4709,-1.4708,-1.471,-1.4713,-1.4715,-1.4718,-1.4683,-1.4647,-1.4723,-1.4666,-1.471,-1.4711,-1.4729,-1.4728,-1.4878,-1.4732,-1.4732,-1.4732,-1.4732,0,-1.4814,-1.4849,-1.4795,-1.4815,-1.4853,-1.4807,-1.4846,-1.4829,-1.4816,-1.4833,-1.4784,-1.4801,-1.4754,-1.4766,-1.4739,-1.4772,-1.4773,-1.4761,-1.4754,-1.4766,-1.4767,-1.4768,-1.4761,-1.4735,-1.4735,-1.4734,-1.4733,0,-1.4943,-1.4908,-1.4941,-1.4911,-1.4904,-1.4933,-1.4908,-1.4926,-1.4903,-1.4925,-1.4927,-1.4891,-1.4903,-1.4868,-1.4875,-1.4856,-1.4905,-1.4887,-1.4909,-1.4903,-1.495,-1.4946,-1.5105,-1.5124,-1.4967,-1.4968,-1.4969,0,-1.5017,-1.5043,-1.5015,-1.5022,-1.5014,-1.5026,-1.5029,-1.4986,-1.4992,-1.4979,-1.4999,-1.5007,-1.501,-1.5032,-1.5007,-1.5012,-1.4993,-1.5049,-1.4994,-1.5005,-1.4994,-1.4993,-1.4996,-1.506,-1.5062,-1.5064,-1.5065,0,-1.5153,-1.5134,-1.514,-1.514,-1.5145,-1.5143,-1.5138,-1.5147,-1.51,-1.5109,-1.512,-1.5123,-1.5129,-1.5137,-1.5137,-1.5126,-1.5089,-1.5083,-1.5093,-1.5106,-1.5117,-1.5112,-1.494,-1.5079,-1.5078,-1.5077,-1.5076,-1.5076,-1.5257,-1.5276,-1.526,-1.5268,-1.5259,-1.5256,-1.5271,-1.5249,-1.5257,-1.5258,-1.5232,-1.5249,-1.5236,-1.5231,-1.5224,-1.5237,-1.5211,-1.5226,-1.523,-1.5235,-1.5243,-1.5115,-1.5236,-1.5236,-1.5235,-1.5235,-1.5235,0,-1.539,-1.5376,-1.5384,-1.5378,-1.5384,-1.5347,-1.5339,-1.5348,-1.5362,-1.5353,-1.5357,-1.537,-1.5377,-1.5353,-1.5357,-1.5372,-1.5355,-1.5374,-1.5373,-1.5371,-1.5265,-1.5255,-1.5388,-1.5388,-1.5388,-1.5388,-1.5388,-1.5388,-1.546,-1.5491,-1.547,-1.5497,-1.5483,-1.5498,-1.5496,-1.5493,-1.5485,-1.5501,-1.5507,-1.549,-1.5475,-1.5477,-1.5483,-1.5475,-1.5479,-1.5505,-1.5492,-1.5394,-1.5379,-1.5364,-1.5355,-1.5506,-1.5507,-1.5597,-1.5598,-1.5598]},{"header":{"parameterUnit":"m.s-1","parameterCategory":1,"la1":30.2991,"la2":30.254,"lo1":-89.0895,"lo2":-89.0444,"dy":0.0017,"dx":0.0017,"nx":28,"ny":28,"refTime":"2025-09-02T03:00:00:Z","depth":0,"parameterNumber":3,"parameterNumberName":"V-component_of_WINDS"},"data":[0,0,0,0,0,0,0,0,0,0,0,0,0,0,0,0,0,0,0,0,0,0,0,0,0,0,0,0,0,0,0,0,0,0,0,0,0,0,0,0,0,0,0,0,0,0,0,0,0,0,0,0,0,0,0,0,0,0,1.5335,1.5335,0,1.5329,1.5329,1.5329,1.5311,1.531,1.531,1.531,1.5303,1.5303,1.5303,0,0,0,0,0,0,0,0,0,0,0,0,0,1.5331,1.5331,1.5335,1.5335,1.5335,1.5329,1.5329,1.5329,1.5311,1.531,1.531,1.5309,1.5303,1.5303,1.5303,0,0,0,0,0,0,0,0,0,0,0,0,0,1.533,1.5331,1.5335,1.5325,1.5324,1.5329,1.5329,1.5329,1.5311,1.531,1.531,1.5309,1.5303,1.5303,1.5303,1.5317,0,0,1.5304,1.5304,0,0,0,0,0,0,0,0,1.533,1.533,1.5327,1.5326,1.5325,1.532,1.5325,1.5325,1.5311,1.5316,1.531,1.5309,1.5309,1.5309,1.5309,1.5316,1.5316,1.5304,1.5304,1.5304,1.5304,0,0,0,0,0,0,0,1.533,1.533,1.5333,1.5327,1.5326,1.5321,1.532,1.5325,1.5316,1.5316,1.5314,1.5314,1.5308,1.5309,1.5308,1.5316,1.5304,1.5304,1.5304,1.5304,1.5333,1.5334,0,0,0,0,0,0,1.5331,1.533,1.5333,1.5333,1.5326,1.5322,1.5321,1.5322,1.5316,1.5314,1.5314,1.5313,1.5308,1.5308,1.5308,1.5323,1.5304,1.5305,1.5305,1.5333,1.5333,1.5334,0,0,0,0,0,0,1.5331,1.5332,1.5333,1.5331,1.5331,1.5322,1.5324,1.5322,1.5323,1.5315,1.5313,1.5316,1.5308,1.5308,1.5314,1.5322,1.5305,1.5305,1.5332,1.5333,1.5334,1.5352,0,0,0,0,0,0,1.5331,1.5332,1.5337,1.5331,1.5331,1.534,1.5325,1.5323,1.5323,1.5321,1.5316,1.5315,1.5307,1.5314,1.5315,1.5322,1.5305,1.5331,1.5332,1.5333,1.5351,1.5354,1.5356,0,0,0,0,0,1.5331,1.5343,1.5338,1.5338,1.5337,1.534,1.534,1.5332,1.5324,1.5329,1.5324,1.5315,1.5321,1.5315,1.5315,1.5323,1.5331,1.5332,1.5333,1.535,1.5353,1.5356,0,0,0,0,0,0,1.535,1.5342,1.5336,1.5346,1.5344,1.5337,1.5343,1.5336,1.5336,1.5334,1.5324,1.5323,1.533,1.5328,1.5321,1.5335,1.5324,1.5326,1.5337,1.534,1.5343,1.5343,1.5305,0,0,0,0,0,1.5355,1.5359,1.5351,1.5361,1.536,1.5352,1.5353,1.5347,1.5344,1.5343,1.5339,1.5336,1.5338,1.5339,1.534,1.5351,1.5349,1.5356,1.5359,1.5361,1.5362,1.5367,1.5369,1.5338,1.5338,1.5338,0,0,1.5366,1.5362,1.5365,1.5365,1.5362,1.5365,1.5352,1.5356,1.5358,1.5344,1.5349,1.5346,1.5343,1.5351,1.5355,1.5349,1.537,1.5363,1.5364,1.5364,1.5368,1.5371,1.5374,1.5339,1.5339,1.5339,0,0,1.5388,1.5386,1.5393,1.5391,1.5387,1.5382,1.5383,1.5378,1.5375,1.5381,1.537,1.5372,1.5375,1.5373,1.5372,1.5392,1.5384,1.5393,1.5406,1.5411,1.5413,1.5415,1.5421,1.5424,1.5394,1.5394,1.5394,0,1.5402,1.5406,1.5397,1.5402,1.5402,1.5389,1.5396,1.5395,1.5392,1.5392,1.5386,1.5388,1.5385,1.5393,1.5397,1.5398,1.5399,1.5393,1.5414,1.5416,1.5417,1.5423,1.5426,1.5395,1.5395,1.5395,1.5395,0,1.5423,1.5427,1.5433,1.543,1.5431,1.5437,1.5428,1.543,1.5423,1.5418,1.5424,1.542,1.5419,1.542,1.5414,1.5427,1.5423,1.5416,1.5404,1.5422,1.5427,1.5429,1.5397,1.5397,1.5396,1.5396,0,0,1.5456,1.5448,1.545,1.5449,1.5444,1.5446,1.5451,1.5451,1.5452,1.545,1.5454,1.5456,1.5449,1.5448,1.5441,1.5446,1.546,1.5437,1.5437,1.5441,1.5473,1.5478,1.548,1.5455,1.5455,1.5456,1.5472,0,1.5475,1.5483,1.5475,1.5485,1.5487,1.5475,1.548,1.5477,1.5472,1.5473,1.5468,1.547,1.5461,1.546,1.5463,1.5458,1.5466,1.5457,1.5457,1.5457,1.5458,1.5483,1.5489,1.5505,1.5475,1.5475,1.5475,0,1.5499,1.5498,1.5508,1.5502,1.5503,1.5507,1.5505,1.5507,1.5503,1.5499,1.5498,1.549,1.5494,1.5484,1.5488,1.5482,1.5482,1.5479,1.5479,1.5478,1.5467,1.5482,1.551,1.5512,1.5478,1.5478,1.5478,0,1.5521,1.5522,1.5528,1.5527,1.552,1.5523,1.552,1.5516,1.5516,1.5515,1.5515,1.5514,1.5513,1.5513,1.5504,1.5498,1.551,1.5499,1.5506,1.5506,1.5509,1.5508,1.5536,1.551,1.551,1.551,1.551,0,1.5543,1.5549,1.5537,1.5541,1.5547,1.5538,1.5544,1.554,1.5537,1.5539,1.5529,1.5531,1.552,1.5521,1.5515,1.5519,1.5519,1.5516,1.5514,1.5516,1.5516,1.5515,1.5514,1.5511,1.5511,1.551,1.551,0,1.5567,1.556,1.5565,1.5559,1.5557,1.5562,1.5556,1.5558,1.5553,1.5556,1.5556,1.5548,1.5548,1.554,1.5539,1.5535,1.5541,1.5538,1.5542,1.5541,1.5548,1.5547,1.5575,1.5578,1.5551,1.5552,1.5552,0,1.5581,1.5586,1.5579,1.558,1.5578,1.5579,1.5579,1.557,1.557,1.5566,1.5569,1.5569,1.5568,1.5569,1.5562,1.5561,1.5557,1.5567,1.5557,1.5559,1.5556,1.5555,1.5555,1.5569,1.5569,1.5569,1.557,0,1.5607,1.5603,1.5603,1.5602,1.5602,1.56,1.5598,1.5599,1.5589,1.559,1.559,1.559,1.5588,1.5588,1.5585,1.5582,1.5574,1.5573,1.5574,1.5576,1.5578,1.5576,1.5547,1.5572,1.5572,1.5572,1.5571,1.5571,1.5626,1.5629,1.5625,1.5625,1.5622,1.562,1.5622,1.5617,1.5617,1.5615,1.561,1.5611,1.5607,1.5603,1.56,1.56,1.5595,1.5598,1.5598,1.5599,1.56,1.5579,1.56,1.56,1.56,1.56,1.56,0,1.565,1.5646,1.5647,1.5644,1.5644,1.5637,1.5634,1.5634,1.5635,1.5632,1.5631,1.5631,1.563,1.5624,1.5622,1.5624,1.562,1.5623,1.5623,1.5622,1.5605,1.5603,1.5627,1.5627,1.5627,1.5627,1.5627,1.5627,1.5662,1.5666,1.5662,1.5665,1.5661,1.5662,1.5661,1.5659,1.5656,1.5656,1.5656,1.5652,1.5647,1.5645,1.5643,1.5641,1.5641,1.5645,1.5642,1.5626,1.5623,1.5621,1.5619,1.5646,1.5646,1.5659,1.5659,1.566]}]]